Location: Unspecified
(0.0000°N, 0.0000°E)
Time: 19:31:28
(UTC+00:00)

Vanguard 1 - Pass Details

Date: 24 April 2026
Orbit: 654 x 3817 km, 34.2° (Epoch: 18 May)

Event Time Altitude Azimuth Distance (km) Brightness Sun altitude
Rises 03:17:59 0° 316° (NW) 7,693 14.4 -38.9°
Reaches altitude 10° 03:24:35 10° 324° (NW) 6,328 14.0 -37.3°
Maximum altitude 03:40:35 35° 24° (NNE) 3,361 12.9 -33.4°
Drops below altitude 10° 03:50:15 10° 86° (E) 3,884 14.0 -31.1°
Sets 03:53:08 0° 95° (E) 4,518 14.5 -30.4°
